This is the latest recevied weather packets stored in our database for station/object N4ASP-13. If no packets are shown the sender has not sent any weather packets the latest 10 day(s).
| Time | Temp. | Humidity | Pressure | Rain* | Wind** | Luminosity | Snow |
|---|---|---|---|---|---|---|---|
| 1777397127 | 12.22° C | 94% | 1019.5 hPa | 0 mm | - | 387 W/m² | - |
| 1777397065 | 12.22° C | 94% | 1019.5 hPa | 0 mm | - | 408 W/m² | - |
| 1777397007 | 12.22° C | 94% | 1019.6 hPa | 0 mm | - | 406 W/m² | - |
| 1777396946 | 12.22° C | 94% | 1019.7 hPa | 0 mm | - | 223 W/m² | - |
| 1777396887 | 12.22° C | 94% | 1019.6 hPa | 0 mm | - | 163 W/m² | - |
| 1777396823 | 12.22° C | 94% | 1019.6 hPa | 0 mm | - | 132 W/m² | - |
| 1777396760 | 12.22° C | 94% | 1019.6 hPa | 0 mm | - | 128 W/m² | - |
| 1777396697 | 12.22° C | 94% | 1019.6 hPa | 0 mm | - | 134 W/m² | - |
| 1777396638 | 12.22° C | 94% | 1019.6 hPa | 0 mm | - | 169 W/m² | - |
| 1777396578 | 12.22° C | 94% | 1019.6 hPa | 0 mm | - | 174 W/m² | - |
| 1777396511 | 12.22° C | 94% | 1019.6 hPa | 0 mm | - | 190 W/m² | - |
| 1777396449 | 12.22° C | 94% | 1019.6 hPa | 0 mm | - | 183 W/m² | - |
| 1777396390 | 12.22° C | 94% | 1019.7 hPa | 0 mm | - | 171 W/m² | - |
| 1777396330 | 12.22° C | 94% | 1019.7 hPa | 0 mm | - | 156 W/m² | - |
| 1777396268 | 12.22° C | 95% | 1019.8 hPa | 0 mm | - | 155 W/m² | - |
| 1777396201 | 12.22° C | 95% | 1019.7 hPa | 0 mm | - | 146 W/m² | - |
| 1777396142 | 12.22° C | 95% | 1019.8 hPa | 0 mm | - | 128 W/m² | - |
| 1777396083 | 12.22° C | 95% | 1020.2 hPa | 0 mm | - | 181 W/m² | - |
| 1777396023 | 12.22° C | 95% | 1019.7 hPa | 0 mm | - | 186 W/m² | - |
| 1777395962 | 12.22° C | 95% | 1019.7 hPa | 0 mm | - | 246 W/m² | - |
| 1777395901 | 12.22° C | 95% | 1019.8 hPa | 0 mm | - | 244 W/m² | - |
| 1777395841 | 12.22° C | 95% | 1019.7 hPa | 0 mm | - | 239 W/m² | - |
| 1777395778 | 12.22° C | 95% | 1019.8 hPa | 0 mm | - | 250 W/m² | - |
| 1777395719 | 12.22° C | 95% | 1019.7 hPa | 0 mm | - | 192 W/m² | - |
| 1777395656 | 12.22° C | 95% | 1019.8 hPa | 0 mm | - | 197 W/m² | - |
* Rain latest hour (hover to see other rain measurements)
** Current wind speed in m/s (hover to see current wind gust speed)